Regional Weather Roundup
Issued by NWS

Home | Current Version | Previous Version | Text Only | Print | Product List | Glossary Off
Versions: 1 2 3 4 5 6 7 8 9 10 11 12 13 14 15 16 17 18 19 20 21 22 23 24 25 26 27 28 29 30 31 32 33 34 35 36 37 38 39 40 41 42 43 44 45 46 47 48 49 50

678
ASUS45 KTFX 171610
RWRMT
MONTANA REGIONAL WEATHER ROUNDUP
NATIONAL WEATHER SERVICE GREAT FALLS MT
900 AM MST SUN DEC 17 2017

NOTE: "FAIR" INDICATES FEW OR NO CLOUDS BELOW 12000 FEET WITH NO
SIGNIFICANT WEATHER AND/OR OBSTRUCTIONS TO VISIBILITY.

MTZ001>007-043-171700-
WEST OF THE DIVIDE

CITY           SKY/WX    TMP DP  RH WIND       PRES   REMARKS
KALISPELL      CLOUDY    28  22  78 S8        30.09S WCI  20
MISSOULA       CLOUDY    18  16  92 NW3       30.15S
BUTTE          CLOUDY     8   4  83 CALM      30.03R
MULLAN PASS    LGT SNOW  22  18  85 VRB7G20   29.99R FOG     WCI  13
ANACONDA         N/A     18   9  68 CALM      30.03F
DEER LODGE       N/A     18  12  79 N3        30.08S
EUREKA           N/A     30  19  64 MISG      30.06F
HAMILTON         N/A     25  12  58 S10       30.12F WCI  15
LIBBY            N/A     25  21  86 CALM      30.09S
RONAN            N/A     23  18  81 CALM      30.14R
$$

MTZ008-052>055-171700-
SOUTHWEST MONTANA

CITY           SKY/WX    TMP DP  RH WIND       PRES   REMARKS
BOZEMAN        CLOUDY     7   3  84 CALM      30.05F
DILLON         MOCLDY    17   8  67 NW5       30.06R
W YELLOWSTONE  FLURRIES   7   3  85 CALM      30.08R
ENNIS          CLOUDY    16   9  73 S17       30.08F WCI   0
THREE FORKS      N/A      3  -2  80 CALM      30.03S
$$

MTZ009-010-012-014-046-048-049-054-171700-
EAST SLOPES AND CENTRAL MONTANA

CITY           SKY/WX    TMP DP  RH WIND       PRES   REMARKS
CUT BANK       FAIR      29  19  66 W31G38    29.72S WCI  13
GREAT FALLS    FAIR      29  14  53 SW25G36   29.79S WCI  14
MALMSTROM AFB  FAIR      30  17  58 SW33G46   29.81S WCI  14
HELENA         FAIR      30  15  53 W18G25    29.99F WCI  18
BOWMANS CRNR   FAIR      26  15  62 S31       29.81S WCI   9
CHOTEAU          N/A     36  16  44 VRB3G15   29.77S
FAIRFIELD      FAIR      34  16  47 SW20      29.76S WCI  22
POWER          FAIR      28  16  60 SW21G30   29.77R WCI  14
RAYNESFORD     MOCLDY    31  16  55 SW22G29   29.79F WCI  18
ULM            FAIR      31  17  56 SW21G29   29.83S WCI  18
$$

MTZ011-013-016-021-045-047-050-051-171700-
NORTH CENTRAL MONTANA

CITY           SKY/WX    TMP DP  RH WIND       PRES   REMARKS
HAVRE          FAIR      28  20  71 SW24      29.74F WCI  14
LEWISTOWN      FAIR      25  13  60 SW9       29.78F WCI  15
N BAR RANCH    FAIR      19   9  63 CALM      29.80F
CHINOOK          N/A     30  19  64 W13       29.75F WCI  20
DENTON         MOCLDY    24  16  69 S10       29.74F WCI  14
GEYSER         MOCLDY    29  18  63 W30       29.75S WCI  14
GRASS RANGE    FAIR      24  12  60 W6        29.76F WCI  17
STANFORD       FAIR      24  15  69 S6        29.75F WCI  17
WINIFRED       FAIR      29  15  56 SW13      29.76F WCI  19
$$

MTZ017>020-022>027-061-062-171700-
NORTHEAST MONTANA

CITY           SKY/WX    TMP DP  RH WIND       PRES   REMARKS
GLASGOW        FAIR      25  22  88 S8        29.81F WCI  16
GLENDIVE       FAIR      23  20  88 S13       29.90F WCI  11
JORDAN           N/A     25  21  85 W8        29.83F WCI  16
SIDNEY         FAIR      20  18  92 VRB5      29.92F
WOLF POINT     FAIR      14   9  80 CALM      29.86F
MALTA          CLEAR     21  18  86 W5        29.80F
PLENTYWOOD       N/A     21  18  86 S13       29.84F WCI   9
POPLAR           N/A     18  14  86 CALM      29.86F
$$

MTZ028>42-056>058-171700-
SOUTHCENTRAL AND SOUTHEAST MONTANA

CITY           SKY/WX    TMP DP  RH WIND       PRES   REMARKS
BAKER          PTSUNNY   25  23  92 S7        29.92F WCI  17
BILLINGS       FAIR      19  19 100 SW7       29.88F WCI  10
LIVINGSTON     LGT SNOW  25  15  66 SW41G53   29.92F VSB 1   WCI   6
MILES CITY     FAIR      24  23  96 S10       29.91F WCI  14
BIG TIMBER     HAZE      23  16  74 W46G62    29.85S VSB 0   WCI   2
FORSYTH          N/A     23  21  93 CALM      29.90S
HARLOWTON      MOCLDY    23  16  74 W31G39    29.83S WCI   5
LAUREL           N/A     25  21  86 W14       29.90F WCI  13
$$

REGIONAL REPORTS...DAKOTAS

CITY           SKY/WX    TMP DP  RH WIND       PRES   REMARKS
WILLISTON      FAIR      20  18  92 S3        29.91F
MINOT          FAIR      26  18  71 S10       29.92F WCI  16
DICKINSON      FAIR      23  19  85 S8        29.92F WCI  14
BEACH          FAIR      23  23 100 S8        29.94F WCI  14
CROSBY         FAIR      21  18  86 S13G18    29.87F WCI   9
TIOGA          FAIR      23  23 100 S8G15     29.90F WCI  14
BISMARCK       FAIR      23  20  88 CALM      30.02S
GRAND FORKS    FAIR      15  12  88 S6        30.00S WCI   6
FARGO          FAIR      25  24  96 SW6       30.04F FOG     WCI  18
BUFFALO SD       N/A     28  23  81 SE6       29.88F WCI  22
RAPID CITY     CLOUDY    31  26  82 S9        29.99F WCI  23
$$

REGIONAL REPORTS...WYOMING/IDAHO/WASHINGTON

CITY           SKY/WX    TMP DP  RH WIND       PRES   REMARKS
GILLETTE       FAIR      24  21  88 S9        29.89F WCI  14
SHERIDAN       FOG       20  19  96 SW3       29.91S VSB 1/4
BUFFALO WY     FOG       20  16  84 CALM      29.86S VSB 1/4
CODY           FAIR      29   9  43 W9G23     29.89S WCI  20
YELLOWSTONE LA   N/A      3   0  87 CALM      30.04S
IDAHO FALLS    CLOUDY    23  21  92 S13       30.20R WCI  11
SALMON         CLOUDY    12   7  80 CALM      30.25R
BOISE          CLOUDY    24  18  77 E6        30.26R WCI  17
SPOKANE        FLURRIES  29  29 100 S10       30.12F WCI  20
$$

REGIONAL REPORTS...ALBERTA

CITY           SKY/WX    TMP DP  RH WIND       PRES   REMARKS
EDMONTON       CLEAR     30  16  55 SW8       29.47S WCI  23
CALGARY        MOCLDY    41  14  33 W23G35    29.58F
LETHBRIDGE     MOCLDY    36  19  51 W38G49    29.65F WCI  21
MEDICINE HAT   MOCLDY    30  23  74 SW8G17    29.67R WCI  23
$$

REGIONAL REPORTS...SASKATCHEWAN

CITY           SKY/WX    TMP DP  RH WIND       PRES   REMARKS
SWIFT CURRENT  PTCLDY    23  14  68 SW22      29.61F WCI   8
REGINA         MOCLDY    23  16  74 S15       29.74F WCI  10
SASKATOON      MOCLDY    23  18  80 S14       29.61F WCI  11
$$




USA.gov is the U.S. government's official web portal to all federal, state and local government web resources and services.